CGZMA CYXU-ZZZZ

Flight info

Callsign CGZMA
Flight time N/A
Altitude 3000
Route VFR WESTBOUND
Aircraft C208

Departure

Time 2026-05-07 01:08
Airport London International Airport (CYXU)

Arrival

Time N/A
Airport ZZZZ
Time Latitude Longitude Altitude Speed Heading
2026-05-07 01:03 43.03571 -81.16237 903 ft 0 kts 71°
2026-05-07 01:05 43.03575 -81.16222 903 ft 11 kts 71°
2026-05-07 01:05 43.03620 -81.16132 903 ft 19 kts 30°
2026-05-07 01:06 43.03670 -81.15971 903 ft 16 kts 78°
2026-05-07 01:06 43.03697 -81.15794 903 ft 21 kts 79°
2026-05-07 01:06 43.03659 -81.15636 903 ft 17 kts 139°
2026-05-07 01:06 43.03566 -81.15520 903 ft 19 kts 141°
2026-05-07 01:07 43.03461 -81.15398 903 ft 20 kts 139°
2026-05-07 01:07 43.03353 -81.15268 903 ft 21 kts 138°
2026-05-07 01:07 43.03293 -81.15142 903 ft 15 kts 43°
2026-05-07 01:07 43.03373 -81.15041 904 ft 16 kts 45°
2026-05-07 01:08 43.03436 -81.15052 905 ft 12 kts 320°
2026-05-07 01:08 43.03714 -81.15378 971 ft 94 kts 322°
2026-05-07 01:08 43.04257 -81.15965 1379 ft 104 kts 321°
2026-05-07 01:08 43.04840 -81.16682 1665 ft 117 kts 310°
2026-05-07 01:09 43.05314 -81.17593 2066 ft 117 kts 302°
2026-05-07 01:09 43.05758 -81.18552 2385 ft 122 kts 302°
2026-05-07 01:09 43.06207 -81.19555 2684 ft 124 kts 301°
2026-05-07 01:09 43.06639 -81.20549 3057 ft 121 kts 301°
2026-05-07 01:10 43.07061 -81.21521 3461 ft 117 kts 300°
2026-05-07 01:10 43.07472 -81.22486 3836 ft 115 kts 299°
2026-05-07 01:10 43.07877 -81.23424 4163 ft 116 kts 300°
2026-05-07 01:10 43.08297 -81.24370 4478 ft 118 kts 300°
2026-05-07 01:11 43.08780 -81.25380 4511 ft 134 kts 302°
2026-05-07 01:11 43.09322 -81.26451 4594 ft 138 kts 303°
2026-05-07 01:11 43.09889 -81.27585 4528 ft 147 kts 302°
2026-05-07 01:11 43.10278 -81.28370 4516 ft 148 kts 302°